Вернуться в каталог

FENGYUN 1C DEB

АктивенSSO
NORAD 36710·DEBRIS·🇨🇳 China

Запущен May 10, 1999 с Taiyuan Satellite Launch Center

Loading…

Ближайшие Пролёты (ближайшие 24 часа)

TLE

СвежийSource: Space-Track

Эпоха: Sep 13, 2026, 21:35 UTC

1 36710U 99025EAG 26256.89936691  .00002992  00000-0  72727-3 0  9994
2 36710  98.3544 317.6335 0065201  61.3227 299.4503 14.52285501689441

Отслеживайте FENGYUN 1C DEB в реальном времени с AllMySat

Download on the App Store